20131021,498
20131022,498
20131023,566
20131024,589
20131025,606
20131028,638
20131029,663
20131030,743
20131031,772
20131101,842
20131105,884
20131106,880
20131107,1040
20131108,1075
20131111,1118
20131112,1167
20131113,1226
20131114,1307
20131115,1377
20131118,1485
20131119,1551
20131120,1726
20131121,1868
20131122,2028
20131125,2127
20131126,2186
20131127,2311
20131128,2758
20131129,2857
20131202,3354
20131203,3619
20131204,3674
20131205,3797
20131206,3903
20131209,4107
20131210,4170
20131211,4200
20131212,4299
20131213,4407
20131216,4485
20131217,4572
20131218,4656
20131219,4811
20131220,4923
20131224,5034
20131225,5158
20131226,5181
20131227,5190
20131230,5248
20140106,5571
20140107,5626
20140108,5805
20140109,5875
20140110,5976
20140114,6020
20140115,6143
20140116,6343
20140117,6442
20140120,6490
20140121,6663
20140122,6760
20140123,6890
20140124,6854
20140127,6841
20140128,6969
20140129,7108
20140130,7158
20140131,7314
20140203,7331
20140204,7345
20140205,7340
20140206,7385
20140207,7489
20140210,7638
20140212,7730
20140213,7838
20140214,7861
20140217,7879
20140218,8001
20140219,8071
20140220,8099
20140221,8068
20140224,8162
20140225,8180
20140226,8188
20140227,8241
20140228,8258
20140303,8291
20140304,8305
20140305,8425
20140306,8512
20140307,8651
20140310,8656
20140311,8654
20140312,8657
20140313,8608
20140314,8539
20140317,8466
20140318,8542
20140319,8564
20140320,8762
20140324,8790
20140325,8758
20140326,8882
20140327,8930
20140328,9014
20140331,9224
20140401,9367
20140402,9462
20140403,9510
20140404,9518
20140407,9465
20140408,9394
20140409,9287
20140410,9313
20140411,9344
20140414,9251
20140415,9293
20140416,9382
20140417,9451
20140418,9539
20140421,9548
20140422,9548
20140423,9598
20140424,9624
20140425,9626
20140428,9604
20140430,9683
20140501,9634
20140502,9668
20140507,9628
20140508,9637
20140509,9675
20140512,9689
20140513,9764
20140514,9813
20140515,9805
20140516,9746
20140519,9714
20140520,9732
20140521,9720
20140522,9758
20140523,9657
20140526,9695
20140527,9701
20140528,9735
20140529,9734
20140530,9732
20140602,9775
20140603,9900
20140604,9923
20140605,9945
20140606,9985
20140609,10042
20140610,10004
20140611,9992
20140612,9814
20140613,9799
20140616,9789
20140617,9761
20140618,9785
20140619,9806
20140620,9887
20140623,9911
20140624,9910
20140625,9929
20140626,9907
20140627,9930
20140630,9937
20140701,9993
20140702,10055
20140703,10114
20140704,10155
20140707,10185
20140708,10123
20140709,10021
20140710,10021
20140711,9973
20140714,9976
20140715,10050
20140716,10095
20140717,10093
20140718,10074
20140722,10064
20140723,10100
20140724,10160
20140725,10195
20140728,10184
20140729,10180
20140730,10249
20140731,10336
20140801,10277
20140804,10213
20140805,10293
20140806,10272
20140807,10186
20140808,10197
20140811,10141
20140812,10250
20140813,10272
20140814,10268
20140815,10309
20140818,10306
20140819,10375
20140820,10449
20140821,10508
20140822,10534
20140825,10527
20140826,10526
20140827,10556
20140828,10542
20140829,10509
20140901,10526
20140902,10595
20140903,10633
20140904,10637
20140905,10664
20140908,10535
20140909,10616
20140910,10591
20140911,10668
20140912,10742
20140916,10664
20140917,10676
20140918,10842
20140919,10851
20140922,10888
20140924,10731
20140925,10613
20140926,10584
20140929,10614
20140930,10594
20141001,10695
20141002,10584
20141003,10478
20141006,10570
20141007,10575
20141008,10464
20141009,10409
20141010,10414
20141014,10187
20141015,10127
20141016,9996
20141017,9957
20141020,10096
20141021,10134
20141022,10233
20141023,10320
20141024,10388
20141027,10417
20141028,10446
20141029,10508
20141030,10666
20141031,10702
20141104,11208
20141105,11204
20141106,11287
20141107,11276
20141110,11144
20141111,11012
20141112,11106
20141113,11064
20141114,11080
20141117,10975
20141118,10930
20141119,11050
20141120,11151
20141121,11116
20141125,11252
20141126,11287
20141127,11282
20141128,11277
20141201,11322
20141202,11283
20141203,11367
20141204,11372
20141205,11356
20141208,11556
20141209,11492
20141210,11277
20141211,11081
20141212,11075
20141215,10936
20141216,10751
20141217,10634
20141218,10831
20141219,11018
20141222,11160
20141224,11294
20141225,11277
20141226,11284
20141229,11299
20141230,11363
20150105,11306
20150106,11135
20150107,11047
20150108,11115
20150109,11258
20150113,11078
20150114,11127
20150115,11021
20150116,10984
20150119,11068
20150120,11228
20150121,11341
20150122,11362
20150123,11453
20150126,11499
20150127,11620
20150128,11605
20150129,11621
20150130,11613
20150202,11574
20150203,11553
20150204,11760
20150205,11749
20150206,11818
20150209,11983
20150210,11878
20150212,12063
20150213,12079
20150216,12143
20150217,12136
20150218,12223
20150219,12210
20150220,12280
20150223,12294
20150224,12346
20150225,12395
20150226,12528
20150227,12586
20150302,12667
20150303,12718
20150304,12717
20150305,12670
20150306,12788
20150309,12870
20150310,12910
20150311,12851
20150312,12868
20150313,12993
20150316,12955
20150317,13101
20150318,13155
20150319,13085
20150320,13287
20150323,13354
20150324,13501
20150325,13597
20150326,13662
20150327,13553
20150330,13742
20150331,13974
20150401,13970
20150402,13940
20150403,14039
20150406,13989
20150407,14042
20150408,14223
20150409,14287
20150410,14319
20150413,14322
20150414,14324
20150415,14289
20150416,14314
20150417,14376
20150420,14346
20150421,14461
20150422,14522
20150423,14670
20150424,14670
20150427,14668
20150428,14809
20150430,14811
20150501,14874
20150507,14845
20150508,14843
20150511,15090
20150512,15193
20150513,15065
20150514,15134
20150515,15190
20150518,15258
20150519,15299
20150520,15534
20150521,15581
20150522,15626
20150525,15776
20150526,15946
20150527,16012
20150528,16220
20150529,16252
20150601,16406
20150602,16459
20150603,16427
20150604,16566
20150605,16640
20150608,16744
20150609,16678
20150610,16675
20150611,16627
20150612,16786
20150615,16792
20150616,16666
20150617,16780
20150618,16952
20150619,16954
20150622,17015
20150623,17288
20150624,17466
20150625,17494
20150626,17449
20150629,17433
20150630,17291
20150701,17336
20150702,17543
20150703,17560
20150706,17499
20150707,17451
20150708,17361
20150709,17101
20150710,17335
20150713,17540
20150714,17814
20150715,17866
20150716,17983
20150717,18133
20150721,18175
20150722,18198
20150723,18155
20150724,18149
20150727,18077
20150728,17905
20150729,17980
20150730,18164
20150731,18305
20150803,18480
20150804,18492
20150805,18551
20150806,18577
20150807,18547
20150810,18599
20150811,18713
20150812,18780
20150813,18614
20150814,18717
20150817,18739
20150818,18780
20150819,18825
20150820,18722
20150821,18618
20150824,18201
20150825,17388
20150826,17521
20150827,17649
20150828,18012
20150831,18274
20150901,18274
20150902,17998
20150903,18079
20150904,18107
20150907,17807
20150908,17842
20150909,18103
20150910,18304
20150911,18209
20150914,18246
20150915,18296
20150916,18293
20150917,18483
20150918,18450
20150924,18205
20150925,18074
20150928,18178
20150929,17960
20150930,17848
20151001,18118
20151002,18228
20151005,18264
20151006,18636
20151007,18730
20151008,18808
20151009,18762
20151013,18919
20151014,18839
20151015,18733
20151016,18751
20151019,18924
20151020,18919
20151021,18954
20151022,19001
20151023,19164
20151026,19382
20151027,19385
20151028,19250
20151029,19394
20151030,19348
20151102,19329
20151104,19407
20151105,19618
20151106,19661
20151109,19810
20151110,19799
20151111,19722
20151112,19749
20151113,19659
20151116,19558
20151117,19618
20151118,19788
20151119,19853
20151120,19930
20151124,19879
20151125,19826
20151126,19913
20151127,20012
20151130,19999
20151201,20001
20151202,20073
20151203,20139
20151204,19946
20151207,19983
20151208,20033
20151209,19844
20151210,19643
20151211,19679
20151214,19405
20151215,19347
20151216,19532
20151217,19776
20151218,19817
20151221,19469
20151222,19434
20151224,19584
20151225,19492
20151228,19547
20151229,19571
20151230,19748
20160104,19602
20160105,19243
20160106,19208
20160107,19036
20160108,18766
20160112,18669
20160113,18655
20160114,18648
20160115,18448
20160118,18267
20160119,18284
20160120,18349
20160121,18042
20160122,18068
20160125,18605
20160126,18503
20160127,18427
20160128,18641
20160129,18974
20160201,19120
20160202,19190
20160203,18893
20160204,18557
20160205,18505
20160208,18450
20160209,17964
20160210,17731
20160212,17284
20160215,17290
20160216,17798
20160217,17778
20160218,17877
20160219,17822
20160222,17702
20160223,17811
20160224,17670
20160225,17528
20160226,17819
20160229,17970
20160301,17712
20160302,17976
20160303,18122
20160304,18236
20160307,18381
20160308,18207
20160309,18072
20160310,18151
20160311,18239
20160314,18403
20160315,18438
20160316,18198
20160317,18136
20160318,18039
20160322,18170
20160323,18252
20160324,18193
20160325,18212
20160328,18250
20160329,18220
20160330,18158
20160331,18455
20160401,18366
20160404,18058
20160405,18098
20160406,17822
20160407,17715
20160408,17676
20160411,17608
20160412,17685
20160413,17744
20160414,17995
20160415,18123
20160418,17837
20160419,17967
20160420,18178
20160421,18286
20160422,18188
20160425,18500
20160426,18362
20160427,18465
20160428,18241
20160502,17638
20160506,17632
20160509,17606
20160510,17778
20160511,17954
20160512,17872
20160513,17932
20160516,17801
20160517,17814
20160518,17882
20160519,18030
20160520,17908
20160523,17942
20160524,17862
20160525,18008
20160526,18032
20160527,18104
20160530,18268
20160531,18323
20160601,18300
20160602,17991
20160603,17960
20160606,17668
20160607,17847
20160608,17853
20160609,17859
20160610,17836
20160613,17601
20160614,17421
20160615,17313
20160616,17220
20160617,16933
20160620,17043
20160621,17078
20160622,17159
20160623,17216
20160624,16557
20160627,16523
20160628,16216
20160629,16428
20160630,16578
20160701,16638
20160704,16744
20160705,16701
20160706,16409
20160707,16290
20160708,16387
20160711,16387
20160712,16757
20160713,17163
20160714,17103
20160715,17358
20160719,17403
20160720,17398
20160721,17579
20160722,17331
20160725,17432
20160726,17180
20160727,17194
20160728,17198
20160729,17159
20160801,16892
20160802,16888
20160803,16640
20160804,16521
20160805,16601
20160808,16762
20160809,16860
20160810,16776
20160812,16905
20160815,16817
20160816,16751
20160817,16676
20160818,16492
20160819,16635
20160822,16636
20160823,16530
20160824,16657
20160825,16639
20160826,16575
20160829,16775
20160830,16778
20160831,17004
20160901,16980
20160902,16938
20160905,17125
20160906,17080
20160907,16761
20160908,16883
20160909,16939
20160912,16867
20160913,16543
20160914,16731
20160915,16625
20160916,16493
20160920,16583
20160921,16539
20160923,16634
20160926,16521
20160927,16357
20160928,16390
20160929,16509
20160930,16536
20161003,16517
20161004,16641
20161005,16761
20161006,16830
20161007,16756
20161011,16793
20161012,16674
20161013,16704
20161014,16499
20161017,16658
20161018,16525
20161019,16549
20161020,16567
20161021,16676
20161024,16585
20161025,16762
20161026,16676
20161027,16683
20161028,16752
20161031,16681
20161101,16593
20161102,16498
20161104,16275
20161107,16353
20161108,16474
20161109,16093
20161110,16595
20161111,16900
20161114,16873
20161115,16908
20161116,17100
20161117,17082
20161118,17338
20161121,17411
20161122,17361
20161124,17590
20161125,17768
20161128,17536
20161129,17406
20161130,17360
20161201,17681
20161202,17538
20161205,17477
20161206,17437
20161207,17484
20161208,17433
20161209,17552
20161212,17715
20161213,17601
20161214,17609
20161215,17896
20161216,17812
20161219,17573
20161220,17307
20161221,17245
20161222,17147
20161226,16942
20161227,16979
20161228,17041
20161229,16861
20161230,16728
20170104,16921
20170105,16849
20170106,16789
20170110,16789
20170111,16781
20170112,16689
20170113,16683
20170116,16558
20170117,16464
20170118,16241
20170119,16484
20170120,16422
20170123,16257
20170124,16094
20170125,16253
20170126,16240
20170127,16494
20170130,16472
20170131,16280
20170201,16187
20170202,16212
20170203,16207
20170206,16118
20170207,16043
20170208,16086
20170209,16015
20170210,16257
20170213,16352
20170214,16364
20170215,16430
20170216,16377
20170217,16334
20170220,16220
20170221,16185
20170222,16221
20170223,16193
20170224,16147
20170227,15961
20170228,15989
20170301,16060
20170302,16215
20170303,16206
20170306,16145
20170307,16162
20170308,16083
20170309,16150
20170310,16235
20170313,16229
20170314,16273
20170315,16187
20170316,15974
20170317,16145
20170321,15982
20170322,15867
20170323,15741
20170324,15739
20170327,15648
20170328,15724
20170329,15755
20170330,15845
20170331,15967
20170403,15821
20170404,15724
20170405,15731
20170406,15712
20170407,15707
20170410,15767
20170411,15686
20170412,15517
20170413,15425
20170414,15477
20170417,15330
20170418,15454
20170419,15379
20170420,15422
20170421,15443
20170424,15562
20170425,15659
20170426,15921
20170427,15951
20170428,15931
20170501,15935
20170502,15971
20170508,16140
20170509,16318
20170510,16365
20170511,16402
20170512,16264
20170515,16166
20170516,16214
20170517,16058
20170518,15791
20170519,15665
20170522,15742
20170523,15752
20170524,15820
20170525,15727
20170526,15744
20170529,15744
20170530,15718
20170531,15680
20170601,15679
20170602,15812
20170605,15712
20170606,15642
20170607,15550
20170608,15580
20170609,15525
20170612,15528
20170613,15478
20170614,15513
20170615,15534
20170616,15606
20170619,15608
20170620,15756
20170621,15657
20170622,15568
20170623,15583
20170626,15527
20170627,15671
20170628,15632
20170629,15681
20170630,15625
20170703,15613
20170704,15774
20170705,15728
20170706,15695
20170707,15707
20170710,15797
20170711,15837
20170712,15799
20170713,15814
20170714,15868
20170718,15787
20170719,15727
20170720,15754
20170721,15794
20170724,15614
20170725,15677
20170726,15757
20170727,15594
20170728,15703
20170731,15558
20170801,15587
20170802,15650
20170803,15709
20170804,15589
20170807,15686
20170808,15711
20170809,15620
20170810,15576
20170814,15417
20170815,15563
20170816,15631
20170817,15532
20170818,15464
20170821,15357
20170822,15339
20170823,15444
20170824,15372
20170825,15467
20170828,15384
20170829,15379
20170830,15532
20170831,15577
20170901,15596
20170904,15601
20170905,15566
20170906,15466
20170907,15528
20170908,15466
20170911,15460
20170912,15603
20170913,15680
20170914,15735
20170915,15637
20170919,15826
20170920,15862
20170921,15990
20170922,15843
20170925,15793
20170926,15638
20170927,15725
20170928,15760
20170929,15744
20171002,15761
20171003,15802
20171004,15765
20171005,15798
20171006,15788
20171010,15737
20171011,15690
20171012,15696
20171013,15642
20171016,15594
20171017,15567
20171018,15502
20171019,15634
20171020,15584
20171023,15740
20171024,15575
20171025,15598
20171026,15459
20171027,15430
20171030,15359
20171031,15340
20171101,15391
20171102,15400
20171106,15454
20171107,15414
20171108,15423
20171109,15435
20171110,15295
20171113,15259
20171114,15195
20171115,15149
20171116,14935
20171117,14960
20171120,14780
20171121,14825
20171122,14856
20171124,14785
20171127,14830
20171128,14730
20171129,14789
20171130,14919
20171201,14943
20171204,14948
20171205,14949
20171206,14888
20171207,14824
20171208,14907
20171211,14962
20171212,14985
20171213,14966
20171214,14848
20171215,14756
20171218,14760
20171219,14840
20171220,14852
20171221,14847
20171222,14891
20171225,14925
20171226,14949
20171227,14952
20171228,14984
20171229,14915
20180104,14939
20180105,15058
20180109,15145
20180110,15054
20180111,14915
20180112,14923
20180115,14940
20180116,15002
20180117,14952
20180118,14990
20180119,14979
20180122,14960
20180123,15009
20180124,14976
20180125,14952
20180126,14953
20180129,14762
20180130,14836
20180131,14727
20180201,14801
20180202,14785
20180205,14688
20180206,14406
20180207,14236
20180208,14326
20180209,14192
20180213,14061
20180214,13999
20180215,13876
20180216,14010
20180219,14023
20180220,14094
20180221,14134
20180222,14147
20180223,14049
20180226,14059
20180227,14125
20180228,14206
20180301,14036
20180302,13851
20180305,13693
20180306,13819
20180307,13869
20180308,13889
20180309,14021
20180312,14078
20180313,14097
20180314,14142
20180315,14009
20180316,14025
20180319,13925
20180320,13862
20180322,13712
20180323,13572
20180326,13473
20180327,13546
20180328,13606
20180329,13678
20180330,13578
20180402,13589
20180403,13531
20180404,13563
20180405,13581
20180406,13760
20180409,13703
20180410,13664
20180411,13757
20180412,13761
20180413,13823
20180416,13852
20180417,13785
20180418,13847
20180419,13943
20180420,13925
20180423,13887
20180424,13925
20180425,13943
20180426,13867
20180427,13939
20180501,13949
20180502,14018
20180507,13806
20180508,13879
20180509,13850
20180510,13957
20180511,13869
20180514,14010
20180515,14073
20180516,14014
20180517,14007
20180518,14028
20180521,14015
20180522,13993
20180523,14049
20180524,13812
20180525,13777
20180528,13740
20180529,13645
20180530,13490
20180531,13506
20180601,13588
20180604,13682
20180605,13796
20180606,13753
20180607,13801
20180608,13800
20180611,13706
20180612,13864
20180613,13887
20180614,13859
20180615,13878
20180618,13805
20180619,13711
20180620,13629
20180621,13748
20180622,13667
20180625,13650
20180626,13557
20180627,13558
20180628,13584
20180629,13575
20180702,13716
20180703,13629
20180704,13649
20180705,13634
20180706,13688
20180709,13731
20180710,13871
20180711,13862
20180712,13943
20180713,14016
20180717,14024
20180718,14090
20180719,13962
20180720,13826
20180723,13635
20180724,13635
20180725,13688
20180726,13624
20180727,13570
20180730,13605
20180731,13551
20180801,13568
20180802,13542
20180803,13485
20180806,13520
20180807,13501
20180808,13586
20180809,13470
20180810,13492
20180813,13348
20180814,13321
20180815,13376
20180816,13272
20180817,13262
20180820,13234
20180821,13201
20180822,13277
20180823,13372
20180824,13446
20180827,13390
20180828,13454
20180829,13488
20180830,13541
20180831,13457
20180903,13372
20180904,13348
20180905,13343
20180906,13270
20180907,13185
20180910,13146
20180911,13184
20180912,13151
20180913,13138
20180914,13272
20180918,13241
20180919,13303
20180920,13273
20180921,13348
20180925,13376
20180926,13341
20180927,13330
20180928,13384
20181001,13400
20181002,13400
20181003,13282
20181004,13344
20181005,13178
20181009,12906
20181010,12861
20181011,12723
20181012,12540
20181015,12479
20181016,12453
20181017,12570
20181018,12635
20181019,12574
20181022,12573
20181023,12530
20181024,12355
20181025,12322
20181026,12242
20181029,12132
20181030,12274
20181031,12277
20181101,12397
20181102,12409
20181105,12530
20181106,12478
20181107,12505
20181108,12629
20181109,12750
20181112,12652
20181113,12542
20181114,12533
20181115,12514
20181116,12448
20181119,12440
20181120,12447
20181121,12308
20181122,12339
20181126,12297
20181127,12391
20181128,12398
20181129,12425
20181130,12522
20181203,12534
20181204,12613
20181205,12504
20181206,12405
20181207,12269
20181210,12290
20181211,12176
20181212,12256
20181213,12290
20181214,12283
20181217,12174
20181218,12016
20181219,11939
20181220,11941
20181221,11670
20181225,11438
20181226,11494
20181227,11539
20181228,11444
20190104,11270
20190107,11377
20190108,11526
20190109,11559
20190110,11566
20190111,11571
20190115,11565
20190116,11616
20190117,11694
20190118,11728
20190121,11823
20190122,11844
20190123,11785
20190124,11790
20190125,11793
20190128,11814
20190129,11738
20190130,11871
20190131,11832
20190201,11947
20190204,12040
20190205,12092
20190206,12125
20190207,12136
20190208,12083
20190212,12097
20190213,12147
20190214,12254
20190215,12163
20190218,12251
20190219,12300
20190220,12330
20190221,12311
20190222,12305
20190225,12328
20190226,12391
20190227,12317
20190228,12331
20190301,12378
20190304,12453
20190305,12436
20190306,12321
20190307,12300
20190308,12244
20190311,12115
20190312,12252
20190313,12294
20190314,12292
20190315,12352
20190318,12343
20190319,12355
20190320,12431
20190322,12324
20190325,12205
20190326,12184
20190327,12314
20190328,12262
20190329,12318
20190401,12326
20190402,12440
20190403,12470
20190404,12492
20190405,12502
20190408,12466
20190409,12471
20190410,12423
20190411,12393
20190412,12457
20190415,12486
20190416,12461
20190417,12495
20190418,12472
20190419,12434
20190422,12397
20190423,12382
20190424,12431
20190425,12455
20190426,12430
20190507,12261
20190508,12218
20190509,12185
20190510,12194
20190513,12120
20190514,12059
20190515,12048
20190516,12065
20190517,12217
20190520,12207
20190521,12184
20190522,12233
20190523,12204
20190524,12092
20190527,12117
20190528,12124
20190529,12121
20190530,12061
20190531,12038
20190603,11887
20190604,11892
20190605,11962
20190606,12080
20190607,12105
20190610,12191
20190611,12191
20190612,12267
20190613,12216
20190614,12218
20190617,12208
20190618,12194
20190619,12274
20190620,12217
20190621,12250
20190624,12224
20190625,12243
20190626,12226
20190627,12215
20190628,12250
20190701,12330
20190702,12446
20190703,12345
20190704,12411
20190705,12430
20190708,12403
20190709,12419
20190710,12315
20190711,12325
20190712,12389
20190716,12360
20190717,12358
20190718,12294
20190719,12224
20190722,12290
20190723,12265
20190724,12300
20190725,12319
20190726,12340
20190729,12297
20190730,12355
20190731,12255
20190801,12331
20190802,12059
20190805,11910
20190806,11772
20190807,11757
20190808,11769
20190809,11852
20190813,11758
20190814,11894
20190815,11796
20190816,11807
20190819,11824
20190820,11938
20190821,11881
20190822,11944
20190823,11957
20190826,11722
20190827,11757
20190828,11812
20190829,11816
20190830,11949
20190902,11970
20190903,11967
20190904,11910
20190905,12021
20190906,12181
20190909,12173
20190910,12224
20190911,12238
20190912,12316
20190913,12389
20190917,12356
20190918,12319
20190919,12372
20190920,12371
20190924,12295
20190925,12276
20190926,12250
20190927,12278
20190930,12293
20191001,12305
20191002,12268
20191003,12069
20191004,12031
20191007,12075
20191008,12182
20191009,12103
20191010,12112
20191011,12221
20191015,12323
20191016,12403
20191017,12414
20191018,12451
20191021,12395
20191023,12398
20191024,12396
20191025,12390
20191028,12401
20191029,12426
20191030,12420
20191031,12386
20191101,12297
20191105,12449
20191106,12472
20191107,12394
20191108,12421
20191111,12237
20191112,12218
20191113,12173
20191114,12100
20191115,12049
20191118,12078
20191119,12076
20191120,12125
20191121,12085
20191122,12081
20191125,12095
20191126,12138
20191127,12122
20191128,12152
20191129,12109
20191202,12073
20191203,11965
20191204,11788
20191205,11888
20191206,11847
20191209,11844
20191210,11871
20191211,11846
20191212,11841
20191213,11968
20191216,11990
20191217,12054
20191218,12028
20191219,11978
20191220,11886
20191223,11832
20191224,11800
20191225,11677
20191226,11701
20191227,11711
20191230,11767
20200106,11498
20200107,11503
20200108,11454
20200109,11615
20200110,11689
20200114,11721
20200115,11716
20200116,11712
20200117,11724
20200120,11740
20200121,11692
20200122,11604
20200123,11573
20200124,11507
20200127,11457
20200128,11281
20200129,11301
20200130,11293
20200131,11245
20200203,11210
20200204,11204
20200205,11352
20200206,11430
20200207,11437
20200210,11344
20200212,11402
20200213,11436
20200214,11387
20200217,11386
20200218,11393
20200219,11370
20200220,11519
20200221,11594
20200225,11194
20200226,11080
20200227,10950
20200228,10788
20200302,10353
20200303,10552
20200304,10621
20200305,10660
20200306,10547
20200309,10017
20200310,9861
20200311,9932
20200312,9860
20200313,9461
20200316,9491
20200317,9233
20200318,9191
20200319,9097
20200323,9503
20200324,9182
20200325,9561
20200326,9747
20200327,9830
20200330,9691
20200331,9836
20200401,9788
20200402,9599
20200403,9548
20200406,9694
20200407,9871
20200408,10122
20200409,10032
20200410,10264
20200413,10225
20200414,10168
20200415,10249
20200416,10180
20200417,10219
20200420,10388
20200421,10323
20200422,10208
20200423,10210
20200424,10273
20200427,10216
20200428,10335
20200430,10447
20200501,10478
20200507,10249
20200508,10298
20200511,10438
20200512,10475
20200513,10466
20200514,10342
20200515,10192
20200518,10322
20200519,10525
20200520,10620
20200521,10670
20200522,10671
20200525,10602
20200526,10644
20200527,10715
20200528,10731
20200529,10807
20200601,10797